Wind_Speed
31 33 36 39 42 45 48 51 55 59 62 66 69 73 73 72 66 48 36 42 50 56 64 66 78 74 68 69 64 66 73 67 63 76 80 88 88 78 74 60 39 32 26
35 39 43 46 47 49 52 55 59 62 66 69 72 74 70 60 36 30 44 52 57 64 68 67 69 66 64 66 68 67 67 66 70 80 83 85 81 75 65 39 26 19 18
40 44 48 50 50 53 56 58 63 66 68 70 73 66 53 34 35 23 51 57 75 70 66 65 63 59 57 65 61 64 72 74 78 85 84 82 76 64 45 22 16 15 18
45 48 51 52 55 58 61 63 65 67 70 67 59 51 53 42 37 39 51 69 71 66 60 61 56 57 61 63 64 68 73 76 81 84 79 77 67 51 25 13 14 11 17
51 55 55 57 59 61 64 66 67 69 61 51 51 55 55 55 51 49 53 58 58 57 63 58 59 65 60 65 69 71 76 77 76 77 77 71 58 34 16 11 17 12 14
57 59 60 61 64 65 66 66 66 55 44 43 50 55 57 56 53 53 53 50 52 55 55 57 61 64 67 68 69 68 66 70 73 75 72 63 50 21 13 9 15 14 11
60 62 63 65 67 65 64 60 47 39 42 45 50 54 55 52 49 46 45 46 47 53 57 57 61 60 64 64 63 65 70 69 71 70 67 54 38 12 6 8 15 17 15
60 63 65 66 65 62 54 44 37 41 42 45 52 54 55 50 52 49 47 48 52 55 59 58 60 57 61 63 68 72 72 74 75 71 61 48 21 6 3 5 7 13 17
63 65 63 63 59 47 38 37 37 42 45 47 50 53 54 58 61 56 52 51 53 54 58 60 59 62 65 69 73 74 76 76 74 66 57 36 7 9 6 2 9 16 21
62 60 58 52 40 32 32 34 38 40 41 47 51 53 55 58 61 61 55 55 57 60 62 64 64 63 64 65 75 77 75 76 75 62 48 20 9 14 7 7 10 14 18
59 51 43 35 30 30 32 33 36 39 43 48 52 54 56 56 60 60 58 57 59 63 66 66 62 60 63 69 80 75 73 76 71 60 33 8 15 18 11 10 12 10 3
48 40 33 31 31 31 32 34 39 45 48 51 51 55 56 54 59 61 64 62 62 66 68 69 69 67 72 75 84 72 73 77 64 49 24 8 21 24 16 13 15 7 5
31 30 32 32 32 33 35 40 44 49 50 53 54 56 58 58 59 62 66 66 65 69 70 72 75 71 74 83 78 73 73 69 57 41 21 12 27 25 20 17 21 13 6
29 31 32 33 35 37 40 44 47 51 52 54 55 56 59 61 61 64 68 66 65 66 70 74 77 75 81 87 79 77 73 62 46 34 16 13 32 27 25 22 23 17 9
31 33 35 38 39 42 45 47 51 53 53 56 58 59 61 63 64 69 71 70 67 68 71 75 77 83 87 80 79 73 64 54 36 26 14 12 37 33 29 27 26 22 19
33 36 39 41 42 44 47 50 51 53 56 59 61 59 63 64 67 71 75 73 69 69 72 74 80 86 79 81 76 64 58 42 29 21 12 9 25 35 33 30 30 27 26
38 39 42 44 46 48 50 52 53 55 58 61 61 61 63 64 68 70 75 71 69 72 72 78 85 83 82 79 69 61 47 35 25 19 10 11 15 37 35 34 33 31 29
41 42 43 46 48 50 52 53 55 59 61 62 61 63 63 64 68 73 78 74 70 72 73 84 82 81 86 71 63 55 40 29 22 18 15 11 17 18 40 39 37 35 35
46 47 49 50 51 53 55 57 58 61 62 63 63 63 64 65 69 77 77 73 73 69 79 86 86 84 75 61 57 46 35 27 23 19 17 17 15 23 25 34 45 43 44
51 52 51 51 53 55 57 58 59 60 61 62 64 62 65 69 72 76 73 74 74 77 81 89 78 68 60 55 49 40 31 25 23 21 19 21 20 18 29 30 34 43 45
52 53 54 55 56 56 57 58 58 62 63 66 63 63 68 70 73 75 72 70 73 76 80 87 72 61 54 50 43 36 30 25 23 22 22 21 20 21 20 32 35 37 42
52 53 55 56 57 61 61 61 62 65 65 64 63 67 69 71 73 80 71 70 73 75 80 79 72 59 51 44 38 33 30 29 28 26 24 23 25 26 24 25 31 40 40
56 56 57 57 60 62 64 64 65 65 65 62 65 67 74 75 79 79 67 68 67 75 79 77 65 56 53 43 38 36 35 35 34 31 28 27 26 26 26 25 26 26 37
58 57 54 61 63 62 62 63 63 61 60 61 66 75 76 77 79 69 67 68 67 76 79 78 79 58 53 46 37 36 39 38 33 28 25 25 25 25 26 26 26 26 30
62 63 67 70 70 61 57 59 62 63 60 65 67 72 79 78 77 62 66 62 69 78 84 83 77 61 53 48 41 37 37 35 29 25 22 19 19 18 17 16 18 20 23
64 65 67 68 66 66 66 65 59 61 66 67 71 77 78 73 63 62 64 64 74 80 83 84 76 60 51 48 41 37 36 32 28 24 22 19 17 15 14 13 13 12 12
Wind_Direction
315 316 315 314 317 320 322 322 321 323 324 323 321 321 324 325 328 326 298 284 289 288 290 293 295 300 303 300 305 317 321 312 312 319 325 325 323 322 321 317 314 310 306
309 311 312 314 317 318 319 320 321 321 321 321 320 319 323 334 342 348 303 299 301 295 292 295 299 306 310 311 313 318 319 319 321 324 323 323 326 325 322 319 319 314 306
307 309 310 311 314 315 317 318 320 320 320 319 318 321 325 343 328 311 285 292 301 300 298 301 302 306 311 317 317 318 314 319 320 321 320 325 324 326 321 317 305 305 300
305 305 306 309 311 313 316 318 319 319 318 321 321 323 323 321 305 295 281 296 298 299 306 315 313 313 311 312 315 319 320 318 319 319 324 328 325 328 319 306 296 299 341
302 302 306 309 311 314 316 318 319 319 320 324 329 328 324 325 317 306 301 299 308 315 316 315 316 319 313 314 316 320 318 319 322 324 328 328 328 324 308 278 284 330 333
300 304 307 309 311 313 316 316 318 317 326 332 335 339 337 329 326 318 315 319 316 314 320 320 316 318 320 319 319 320 322 322 323 326 328 329 327 314 303 279 306 299 327
301 302 305 306 309 312 313 312 313 323 330 337 343 343 345 339 337 333 332 330 332 327 324 319 318 318 320 320 324 323 326 325 325 326 329 327 321 302 293 289 285 305 315
295 298 300 305 307 309 308 308 318 328 334 337 342 342 351 346 333 336 333 331 328 324 322 317 319 325 326 329 326 327 326 326 327 330 331 328 305 255 264 291 294 311 307
296 298 302 302 303 304 302 312 322 328 328 333 337 341 343 342 348 341 333 330 325 328 328 328 328 329 328 326 327 328 329 328 328 332 331 327 254 200 218 232 306 306 317
293 298 297 298 299 300 309 315 321 325 325 328 333 337 339 341 342 350 339 334 335 335 330 327 325 325 326 331 334 332 327 327 330 333 333 319 207 200 203 215 276 304 320
299 296 294 289 289 299 309 312 316 322 324 327 330 333 336 337 342 344 343 339 335 336 339 334 330 331 332 334 335 328 330 330 332 332 333 293 192 194 198 210 258 297 338
290 287 285 282 288 297 302 306 312 318 322 326 329 332 334 335 337 339 337 336 336 333 333 334 333 328 331 331 333 330 330 330 332 332 331 248 196 199 200 210 239 245 218
277 275 276 281 289 296 301 306 312 318 321 324 328 330 332 333 334 337 337 335 329 326 329 330 329 329 329 330 332 328 328 330 332 328 324 228 199 210 201 217 225 232 220
266 269 278 284 291 297 301 305 310 316 320 324 326 328 330 332 333 334 335 335 328 325 330 328 327 328 330 332 330 328 329 331 332 329 322 216 199 202 204 216 225 230 207
265 271 277 284 292 298 301 303 308 314 318 322 325 326 328 329 331 334 335 334 329 327 328 326 326 330 332 330 329 330 330 332 333 330 320 221 201 203 200 212 223 230 237
272 275 279 286 293 298 303 305 308 312 316 322 324 324 326 327 330 334 336 333 327 327 326 325 330 330 328 329 332 332 331 332 330 327 311 245 215 207 204 211 220 228 233
275 281 286 290 293 297 302 305 308 311 315 318 320 324 325 327 331 333 334 331 329 327 326 330 330 328 332 331 333 332 330 329 326 322 309 246 228 212 212 210 221 225 226
276 282 287 291 292 295 300 304 308 311 313 316 319 322 323 326 329 330 332 332 327 327 326 329 327 326 329 332 331 330 329 326 321 313 299 262 239 236 214 216 219 227 229
281 286 289 291 292 295 298 304 307 309 311 314 317 319 321 324 327 329 331 330 327 324 326 327 329 326 327 330 330 330 328 325 321 314 298 289 270 236 230 228 228 231 236
282 285 286 289 291 294 299 302 304 306 309 314 316 317 318 322 328 330 332 331 329 327 329 335 328 326 329 332 332 332 327 322 317 308 295 290 288 272 236 233 233 235 236
284 285 286 287 290 293 296 300 303 306 309 313 313 314 318 324 327 328 329 331 324 324 335 335 333 331 334 336 334 332 329 323 316 308 299 296 290 279 271 240 235 237 239
278 283 285 287 290 294 296 302 303 306 307 309 310 314 320 324 327 327 329 327 325 328 333 338 340 333 338 338 336 334 329 325 318 310 301 291 280 282 278 265 248 239 239
278 280 284 287 291 294 295 298 301 303 305 307 311 316 321 325 325 328 326 324 327 331 338 344 344 340 340 340 337 334 330 326 317 308 300 294 287 284 282 274 266 261 248
279 277 278 292 294 292 293 296 300 302 302 307 312 317 320 322 325 326 321 319 326 333 337 342 345 343 342 339 334 330 332 328 323 316 304 296 293 288 284 281 278 274 264
280 281 279 285 288 287 292 295 298 300 302 310 312 314 320 323 323 319 319 322 323 333 338 344 344 343 339 339 335 331 332 330 329 329 325 317 309 304 299 298 294 283 269
276 278 281 284 286 287 292 294 295 297 301 307 311 314 317 321 320 319 322 320 326 333 338 340 345 340 337 339 335 336 334 331 331 333 334 329 325 318 310 306 308 312 297
Height
10974 10973 10970 10966 10963 10960 10956 10951 10944 10937 10930 10921 10912 10902 10899 10895 10890 10880 10875 10869 10865 10857 10849 10836 10825 10813 10800 10787 10776 10768 10759 10750 10737 10721 10709 10695 10677 10662 10647 10632 10621 10614 10609
10968 10966 10962 10959 10956 10952 10948 10943 10937 10929 10922 10914 10904 10897 10894 10891 10875 10867 10862 10857 10858 10850 10836 10824 10810 10796 10785 10775 10766 10758 10745 10736 10725 10711 10695 10680 10662 10646 10631 10621 10613 10609 10605
10963 10959 10955 10952 10949 10945 10941 10936 10928 10921 10913 10906 10895 10888 10886 10886 10870 10865 10849 10843 10839 10834 10818 10807 10794 10781 10773 10767 10758 10749 10734 10721 10710 10698 10684 10668 10650 10637 10622 10615 10610 10607 10604
10956 10953 10949 10946 10941 10936 10932 10926 10920 10912 10903 10896 10887 10878 10876 10878 10872 10858 10844 10834 10828 10816 10804 10790 10779 10771 10764 10757 10748 10737 10724 10710 10695 10683 10668 10653 10638 10625 10617 10612 10610 10608 10605
10947 10943 10940 10936 10932 10928 10922 10914 10907 10900 10894 10887 10879 10871 10863 10857 10852 10846 10836 10824 10810 10796 10788 10780 10772 10762 10753 10746 10736 10725 10712 10698 10683 10669 10655 10641 10629 10618 10613 10611 10609 10609 10605
10936 10932 10929 10925 10922 10917 10911 10904 10899 10892 10886 10879 10871 10861 10850 10840 10831 10823 10813 10802 10794 10786 10779 10770 10761 10752 10743 10734 10723 10712 10701 10687 10671 10657 10644 10630 10620 10612 10610 10608 10607 10606 10606
10927 10924 10921 10916 10912 10907 10902 10896 10891 10885 10878 10871 10863 10853 10842 10831 10822 10811 10802 10794 10785 10778 10770 10761 10752 10742 10732 10721 10711 10699 10686 10673 10660 10646 10633 10620 10609 10606 10606 10606 10605 10604 10602
10924 10920 10913 10909 10902 10898 10891 10886 10882 10875 10870 10865 10856 10848 10837 10825 10817 10805 10795 10786 10778 10770 10761 10752 10741 10730 10720 10709 10697 10685 10672 10657 10643 10631 10619 10608 10600 10602 10602 10603 10602 10601 10600
10915 10910 10903 10896 10891 10887 10882 10878 10874 10869 10863 10859 10851 10842 10832 10822 10813 10801 10789 10779 10770 10761 10751 10740 10729 10720 10710 10699 10686 10672 10658 10643 10630 10618 10606 10596 10594 10597 10599 10600 10601 10600 10598
10904 10900 10892 10886 10882 10878 10875 10871 10868 10864 10858 10851 10843 10834 10825 10816 10806 10793 10782 10772 10762 10754 10742 10729 10719 10710 10699 10688 10673 10659 10644 10629 10614 10603 10594 10587 10589 10592 10595 10598 10599 10598 10595
10885 10883 10880 10877 10875 10871 10868 10865 10861 10856 10850 10845 10837 10829 10819 10811 10800 10789 10776 10765 10756 10745 10732 10720 10709 10699 10689 10677 10662 10647 10632 10617 10604 10592 10584 10581 10585 10589 10591 10595 10597 10597 10594
10878 10876 10874 10871 10869 10865 10862 10859 10854 10849 10842 10837 10829 10821 10812 10803 10793 10781 10769 10757 10747 10736 10725 10713 10701 10689 10677 10665 10651 10634 10622 10608 10594 10583 10579 10577 10581 10584 10587 10591 10593 10595 10595
10869 10868 10866 10864 10862 10858 10854 10850 10845 10840 10834 10827 10819 10812 10803 10793 10783 10772 10760 10749 10739 10728 10717 10703 10691 10678 10666 10653 10636 10622 10610 10597 10585 10576 10573 10572 10575 10579 10583 10586 10588 10590 10592
10859 10858 10857 10855 10852 10849 10845 10840 10836 10830 10823 10817 10810 10802 10793 10783 10774 10764 10752 10740 10729 10717 10706 10693 10680 10667 10653 10640 10626 10611 10597 10585 10576 10568 10566 10565 10569 10573 10578 10582 10585 10588 10588
10849 10848 10846 10844 10841 10838 10835 10831 10826 10820 10813 10807 10799 10791 10783 10775 10765 10755 10743 10730 10719 10707 10695 10682 10669 10655 10642 10626 10613 10597 10584 10574 10568 10564 10560 10560 10564 10568 10572 10576 10580 10584 10586
10838 10838 10836 10833 10830 10827 10823 10820 10816 10810 10803 10795 10788 10782 10773 10764 10755 10744 10733 10719 10707 10697 10685 10671 10658 10644 10630 10615 10599 10585 10575 10566 10562 10559 10557 10556 10558 10562 10566 10570 10574 10578 10580
10830 10828 10826 10823 10820 10816 10813 10809 10805 10800 10793 10787 10779 10770 10762 10754 10744 10733 10721 10710 10700 10687 10673 10659 10646 10632 10617 10601 10588 10577 10568 10560 10557 10555 10553 10553 10553 10558 10562 10564 10567 10570 10574
10818 10816 10814 10811 10808 10805 10802 10798 10795 10789 10783 10775 10767 10760 10751 10743 10734 10722 10711 10700 10689 10677 10663 10648 10634 10621 10604 10590 10578 10569 10561 10555 10552 10550 10547 10548 10548 10550 10554 10556 10560 10563 10566
10808 10806 10804 10800 10797 10794 10791 10788 10784 10778 10772 10765 10757 10750 10742 10735 10726 10714 10701 10689 10678 10666 10652 10637 10622 10607 10593 10580 10569 10560 10553 10548 10546 10544 10542 10540 10541 10543 10545 10548 10551 10554 10558
10795 10793 10791 10789 10786 10783 10779 10776 10772 10766 10761 10754 10747 10739 10733 10726 10716 10703 10690 10678 10668 10655 10641 10625 10606 10592 10581 10570 10560 10553 10547 10543 10541 10539 10537 10535 10534 10534 10536 10539 10541 10543 10547
10782 10781 10779 10777 10775 10772 10768 10765 10761 10754 10748 10742 10735 10729 10721 10714 10704 10692 10679 10667 10657 10645 10630 10615 10597 10582 10571 10561 10552 10547 10542 10539 10536 10533 10531 10529 10527 10526 10528 10529 10532 10533 10535
10769 10768 10767 10765 10764 10760 10756 10751 10747 10741 10735 10729 10724 10718 10711 10703 10692 10681 10668 10658 10648 10639 10623 10606 10592 10578 10565 10554 10547 10542 10537 10533 10529 10527 10524 10522 10520 10519 10518 10519 10520 10522 10524
10755 10754 10753 10750 10748 10745 10741 10737 10734 10729 10723 10718 10711 10706 10700 10692 10681 10670 10659 10650 10640 10630 10615 10598 10583 10570 10559 10549 10542 10537 10532 10527 10523 10519 10516 10514 10512 10510 10509 10509 10510 10510 10511
10741 10740 10739 10736 10733 10731 10727 10724 10720 10717 10710 10704 10698 10693 10685 10679 10670 10661 10651 10640 10631 10622 10606 10590 10577 10562 10554 10546 10538 10532 10526 10521 10514 10510 10507 10505 10503 10502 10500 10500 10500 10500 10501
10726 10726 10725 10723 10719 10716 10715 10710 10705 10702 10698 10691 10682 10677 10674 10667 10659 10650 10642 10629 10618 10607 10595 10581 10568 10557 10549 10540 10533 10526 10520 10515 10509 10504 10501 10498 10496 10495 10493 10492 10491 10491 10491
10709 10710 10709 10706 10703 10701 10698 10695 10692 10689 10685 10678 10673 10665 10659 10654 10646 10640 10630 10620 10608 10597 10585 10573 10561 10551 10543 10535 10527 10521 10515 10510 10506 10501 10498 10495 10493 10491 10489 10487 10487 10486 10485